Tracking 17884 objects as of 7-December-2016
HD Live streaming from Space Station
objects crossing your sky now

N-1 R/B

Track N-1 R/B now!
10-day predictions


NORAD ID: 8710
Int'l Code: 1976-019B
Perigee: 998.8 km
Apogee: 1,015.8 km
Inclination: 69.7 °
Period: 105.1 minutes
Semi major axis: 7378 km
RCS: 1.547 m2 (large)
Launch date: February 29, 1976
Source: Japan (JPN)
Launch site: TANEGASHIMA SPACE CENTER (TNSTA)

Note: This is a ROCKET BODY
Your satellite tracking list
Your tracking list is empty





NASA's NSSDC Master Catalog

Two Line Element Set (TLE):
1 08710U 76019B   16341.87807697 -.00000038  00000-0  15195-4 0  9993
2 08710  69.6771 240.2536 0011479 156.7362 270.3733 13.69836158 38824
Source of the keplerian elements: AFSPC